Sneeuw/IJzel/Bevriezing van: 16-12-2017 07:00 tot: 08:59 waarschuwing voor: Sneeuw/IJzel/Bevriezing niveau: Geel info button

Weerstation Grootegast  Weerstation Grootegast


waarschuwing voor winterse neerslag Meer informatie rain snow radar


15 daagse weersverwachting Charlottenlund (DK)

  • Overzicht
  • Per uur
  • 15 dagen
  • Extra
  • Vergelijk
  • Kaarten
  • Dagkaart
  • Meer »
  • Info
  • Statistieken
  • Directe link
    Temp 6h Neerslag Wind  
 08:37     15:36    Daglengte: 6:59 Vandaag
13:00
 
5
19:00
 
4
 08:37     15:36    Daglengte: 6:59 Morgen
01:00
 
5
07:00
-0°
0.8 mm
5
warningclass
13:00
 
2
19:00
 
3
 08:38     15:37    Daglengte: 6:59 Maandag 18 Dec
01:00
 
6
07:00
0.8 mm
6
13:00
 
5
19:00
 
5
 08:39     15:37    Daglengte: 6:58 Dinsdag 19 Dec
01:00
0.8 mm
4
Locatie info
Region: Hovedstaden
Latitude: 55.7533°N
Longitude: 12.5722°E
11 masl
Postcode: 2920
Temp/Neerslag /Baro Onweer/Dauwpunt
    Temp Baro 1h Neerslag Dauwpunt Wind UV Bewolking  
 08:37     15:36    Daglengte: 6:59 Vandaag
09:00
Voelt als: -1.4°
998.4 hPa
21%
-0.6°
4
Windvlaag: -1.5 m/s
23%
10:00
Voelt als: -2.3°
999.0 hPa
21%
-1.4°
5
Windvlaag: 0.8 m/s
5%
11:00
Voelt als: -2.2°
999.5 hPa
21%
-2.6°
5
Windvlaag: -0.3 m/s
1%
12:00
Voelt als: -2.0°
999.9 hPa
21%
-3.6°
5
Windvlaag: -0.2 m/s
0%
13:00
Voelt als: -2.0°
1000.3 hPa
21%
-3.5°
5
Windvlaag: 0 m/s
0%
14:00
Voelt als: -2.0°
1000.7 hPa
21%
-3.3°
5
Windvlaag: 0.3 m/s
0%
15:00
Voelt als: -2.3°
1001.2 hPa
21%
-3.3°
5
Windvlaag: 0.6 m/s
2%
16:00
Voelt als: -2.7°
1001.7 hPa
21%
-2.3°
4
Windvlaag: 1 m/s
23%
17:00
Voelt als: -3.4°
1002.2 hPa
21%
-1.8°
4
Windvlaag: 1.1 m/s
38%
18:00
Voelt als: -3.6°
1002.6 hPa
21%
-1.4°
4
Windvlaag: 1.1 m/s
50%
19:00
Voelt als: -3.8°
1003.1 hPa   -1.1°
4
Windvlaag: 1.1 m/s
40%
20:00
Voelt als: -3.6°
1003.5 hPa
21%
-1.1°
4
Windvlaag: 1.1 m/s
31%
21:00
Voelt als: -3.7°
1003.7 hPa
21%
-1.1°
4
Windvlaag: 1.3 m/s
37%
22:00
Voelt als: -3.5°
1004.4 hPa
21%
-1.3°
4
Windvlaag: 1.7 m/s
61%
23:00
Voelt als: -4.0°
1004.8 hPa
21%
-1.7°
4
Windvlaag: 2 m/s
50%
 08:37     15:36    Daglengte: 6:59 Morgen
00:00
Voelt als: -3.8°
1005.2 hPa
21%
-1.2°
4
Windvlaag: 1.9 m/s
13%
01:00
Voelt als: -4.1°
1005.9 hPa
21%
-1.7°
5
Windvlaag: 2.8 m/s
7%
02:00
Voelt als: -3.7°
1006.6 hPa 0.8 mm
21%
-0.7°
5
Windvlaag: -4.1 m/s
26% warningclass
03:00
Voelt als: -4.4°
1007.8 hPa
21%
-0.3°
6
Windvlaag: -5.4 m/s
11%
04:00
Voelt als: -4.6°
1008.9 hPa
21%
-0.6°
6
Windvlaag: -4.9 m/s
18%
05:00
Voelt als: -4.8°
1010.0 hPa
21%
-0.9°
5
Windvlaag: -4.1 m/s
29%
06:00
-0°
Voelt als: -4.9°
1011.0 hPa
21%
-1.2°
5
Windvlaag: -3.8 m/s
4%
07:00
-0°
Voelt als: -5.0°
1012.1 hPa
21%
-1.4°
5
Windvlaag: -3.1 m/s
3%
08:00
-0°
Voelt als: -4.8°
1013.2 hPa
21%
-1.5°
5
Windvlaag: -3 m/s
3%
09:00
-0°
Voelt als: -4.7°
1014.1 hPa
21%
-1.8°
5
Windvlaag: -3.6 m/s
4%
10:00
Voelt als: -4.1°
1015.1 hPa
21%
-1.8°
4
Windvlaag: -3.7 m/s
8%
11:00
Voelt als: -3.5°
1015.6 hPa
21%
-1.1°
4
Windvlaag: -3.7 m/s
14%
12:00
Voelt als: -2.6°
1015.9 hPa
21%
-0.7°
3
Windvlaag: -3.3 m/s
19%
13:00
Voelt als: -1.4°
1016.3 hPa
21%
-0.6°
2
Windvlaag: -2.7 m/s
19%
14:00
Voelt als: -1.1°
1016.6 hPa
21%
-0.6°
2
Windvlaag: -1.9 m/s
19%
15:00
Voelt als: -1.2°
1016.9 hPa
21%
-1.0°
2
Windvlaag: -1.2 m/s
19%
16:00
Voelt als: -1.3°
1017.2 hPa
21%
-1.3°
2
Windvlaag: 0.2 m/s
19%
17:00
Voelt als: -2.2°
1017.6 hPa
21%
-1.4°
2
Windvlaag: 2.1 m/s
19%
18:00
Voelt als: -3.1°
1017.6 hPa
21%
-1.4°
3
Windvlaag: 3.2 m/s
19%
19:00
Voelt als: -3.4°
1017.7 hPa   -1.0°
3
Windvlaag: 3.9 m/s
19%
20:00
Voelt als: -3.7°
1017.8 hPa
21%
-0.8°
4
Windvlaag: 5 m/s
19%
21:00
Voelt als: -3.8°
1017.7 hPa
21%
-0.7°
4
Windvlaag: 5.8 m/s
75%
22:00
Voelt als: -3.3°
1017.7 hPa
21%
-0.1°
4
Windvlaag: 6.7 m/s
77%
23:00
Voelt als: -3.1°
1017.3 hPa
21%
0.5°
5
Windvlaag: 7.4 m/s
59%
 08:38     15:37    Daglengte: 6:59 Maandag 18 Dec
00:00
Voelt als: -3.2°
1016.8 hPa
21%
0.6°
5
Windvlaag: 8.3 m/s
81%
01:00
Voelt als: -3.0°
1016.3 hPa
21%
0.8°
6
Windvlaag: 9.2 m/s
81%
02:00
Voelt als: -2.7°
1015.7 hPa 0.8 mm
21%
0.7°
6
Windvlaag: 9.2 m/s
81%
03:00
Voelt als: -2.7°
1015.4 hPa
21%
0.8°
7
Windvlaag: 9.3 m/s
81%
04:00
Voelt als: -3.2°
1016.8 hPa
100%
1.3°
7
Windvlaag: 9.9 m/s
94%
05:00
Voelt als: -3.2°
1017.0 hPa
100%
1.5°
7
Windvlaag: 10.3 m/s
99%
06:00
Voelt als: -2.9°
1017.3 hPa
100%
1.5°
6
Windvlaag: 10.2 m/s
93%
07:00
Voelt als: -2.6°
1017.5 hPa
100%
2.0°
6
Windvlaag: 9.5 m/s
91%
08:00
Voelt als: -2.3°
1018.1 hPa
100%
1.8°
6
Windvlaag: 9.2 m/s
76%
09:00
Voelt als: -2.0°
1018.9 hPa
100%
2.3°
7
Windvlaag: 9.3 m/s
94%
10:00
Voelt als: -2.1°
1019.7 hPa
100%
2.2°
7
Windvlaag: 9.6 m/s
100%
11:00
Voelt als: -1.9°
1020.3 hPa
100%
2.3°
6
Windvlaag: 9.5 m/s
97%
12:00
Voelt als: -1.4°
1020.8 hPa
100%
1.7°
5
Windvlaag: 8.2 m/s
93%
13:00
Voelt als: -1.4°
1021.2 hPa
100%
1.7°
5
Windvlaag: 7 m/s
96%
14:00
Voelt als: -1.5°
1021.5 hPa
100%
1.4°
5
Windvlaag: 6.2 m/s
97%
15:00
Voelt als: -1.6°
1021.6 hPa
100%
1.4°
4
Windvlaag: 6.8 m/s
95%
16:00
Voelt als: -1.2°
1022.2 hPa
100%
1.3°
4
Windvlaag: 6 m/s
92%
17:00
Voelt als: -2.0°
1022.8 hPa
100%
1.0°
4
Windvlaag: 5.6 m/s
99%
18:00
Voelt als: -2.5°
1023.2 hPa
100%
0.6°
4
Windvlaag: 6.1 m/s
100%
19:00
Voelt als: -2.9°
1023.4 hPa   0.2°
5
Windvlaag: 7.2 m/s
100%
20:00
Voelt als: -2.7°
1023.8 hPa
100%
0.1°
5
Windvlaag: 7 m/s
100%
21:00
Voelt als: -2.6°
1023.8 hPa
100%
-0.3°
4
Windvlaag: 6.3 m/s
100%
22:00
Voelt als: -2.6°
1023.9 hPa
100%
-0.3°
5
Windvlaag: 6 m/s
100%
23:00
Voelt als: -2.7°
1024.0 hPa
100%
-0.1°
5
Windvlaag: 6.1 m/s
98%
 08:39     15:37    Daglengte: 6:58 Dinsdag 19 Dec
00:00
Voelt als: -2.5°
1024.0 hPa 0.8 mm
100%
-0.1°
4
Windvlaag: 6 m/s
100%
01:00
Voelt als: -2.1°
1023.7 hPa
100%
0.2°
4
Windvlaag: 5.7 m/s
100%
02:00
Voelt als: -0.4°
1026.7 hPa 2.0 mm
100%
0.2°
2
Windvlaag: 4.1 m/s
100%
03:00
Voelt als: -0.6°
1026.9 hPa 2.0 mm
100%
0.3°
2
Windvlaag: 4.3 m/s
100%
04:00
Voelt als: -0.6°
1027.1 hPa 2.0 mm
100%
0.5°
2
Windvlaag: 3.9 m/s
100%
05:00
Voelt als: -0.8°
1027.6 hPa 2.0 mm
100%
0.6°
2
Windvlaag: 3.7 m/s
100%
06:00
Voelt als: -1.1°
1028.2 hPa 2.0 mm
100%
0.7°
2
Windvlaag: 3.6 m/s
100%
07:00
Voelt als: -0.9°
1028.3 hPa 2.0 mm
100%
0.7°
2
Windvlaag: 3.6 m/s
97%
Temp/Neerslag /Baro Onweer/Dauwpunt
    Temp Baro Neerslag Dauwpunt Wind Bewolking  
 08:37     15:36    Daglengte: 6:59 Vandaag
10:00
Voelt als: -2.3°
999.0 hPa   -1.4°
5
5%
13:00
Voelt als: -2.0°
1000.3 hPa   -3.5°
5
0%
16:00
Voelt als: -2.7°
1001.7 hPa   -2.3°
4
23%
19:00
Voelt als: -3.8°
1003.1 hPa   -1.1°
4
40%
22:00
Voelt als: -3.5°
1004.4 hPa   -1.3°
4
61%
 08:37     15:36    Daglengte: 6:59 Morgen
01:00
Voelt als: -4.1°
1005.9 hPa   -1.7°
5
7%
04:00
Voelt als: -4.6°
1008.9 hPa 0.8 mm -0.6°
6
18% warningclass
07:00
-0°
Voelt als: -5.0°
1012.1 hPa   -1.4°
5
3%
10:00
Voelt als: -4.1°
1015.1 hPa   -1.8°
4
8%
13:00
Voelt als: -1.4°
1016.3 hPa   -0.6°
2
19%
16:00
Voelt als: -1.3°
1017.2 hPa   -1.3°
2
19%
19:00
Voelt als: -3.4°
1017.7 hPa   -1.0°
3
19%
22:00
Voelt als: -3.3°
1017.7 hPa   -0.1°
4
77%
 08:38     15:37    Daglengte: 6:59 Maandag 18 Dec
01:00
Voelt als: -3.0°
1016.3 hPa   0.8°
6
81%
04:00
Voelt als: -3.2°
1016.8 hPa 0.8 mm 1.3°
7
94%
07:00
Voelt als: -2.6°
1017.5 hPa   2.0°
6
91%
10:00
Voelt als: -2.1°
1019.7 hPa   2.2°
7
100%
13:00
Voelt als: -1.4°
1021.2 hPa   1.7°
5
96%
16:00
Voelt als: -1.2°
1022.2 hPa   1.3°
4
92%
19:00
Voelt als: -2.9°
1023.4 hPa   0.2°
5
100%
22:00
Voelt als: -2.6°
1023.9 hPa   -0.3°
5
100%
 08:39     15:37    Daglengte: 6:58 Dinsdag 19 Dec
01:00
Voelt als: -2.1°
1023.7 hPa 0.8 mm 0.2°
4
100%
04:00
Voelt als: -0.6°
1027.1 hPa 6.0 mm 0.5°
2
100%
07:00
Voelt als: -0.9°
1028.3 hPa 6.1 mm 0.7°
2
97%
10:00
Voelt als: -0.8°
1031.3 hPa   -17.7°
2
17%
13:00
Voelt als: 0.6°
1030.5 hPa   -16.1°
3
21%
16:00
Voelt als: 0.6°
1029.6 hPa   -15.5°
4
24%
19:00
Voelt als: 0.5°
1028.6 hPa   -15.5°
5
20%
22:00
Voelt als: 0.5°
1027.8 hPa   -15.5°
4
18%
 08:39     15:37    Daglengte: 6:58 Woensdag 20 Dec
01:00
Voelt als: 0.9°
1027.5 hPa   -15.5°
3
21%
04:00
Voelt als: 1.2°
1026.4 hPa 0.2 mm -14.4°
4
25%
07:00
Voelt als: 1.9°
1026.3 hPa 0.9 mm -13.9°
4
25%
10:00
Voelt als: 2.7°
1026.7 hPa 0.1 mm -13.4°
4
26%
13:00
Voelt als: 3.6°
1025.5 hPa 0.3 mm -12.5°
5
25%
16:00
Voelt als: 2.2°
1025.1 hPa 0.3 mm -14.8°
5
26%
19:00
Voelt als: -0.0°
1026.4 hPa   -18.3°
6
22%
22:00
Voelt als: -0.9°
1027.9 hPa   -16.1°
4
12%
 08:40     15:38    Daglengte: 6:58 Donderdag 21 Dec
01:00
Voelt als: -0.6°
1027.4 hPa   -17.0°
2
16%
04:00
Voelt als: -0.3°
1025.7 hPa   -17.6°
2
19%
07:00
Voelt als: -0.5°
1022.1 hPa   -17.1°
2
24%
10:00
Voelt als: 0.3°
1019.0 hPa 3.1 mm -15.3°
5
26%
13:00
Voelt als: 1.5°
1016.4 hPa 1.3 mm -13.7°
6
24%
16:00
Voelt als: 2.3°
1016.3 hPa   -15.1°
9
18%
19:00
Voelt als: 0.4°
1016.8 hPa   -18.4°
8
13%
22:00
Voelt als: -0.9°
1016.6 hPa   -19.7°
9
14%
 08:40     15:38    Daglengte: 6:58 Vrijdag 22 Dec
01:00
Voelt als: -0.9°
1016.3 hPa   -18.4°
8
15%
04:00
Voelt als: -1.2°
1016.3 hPa   -18.4°
7
9%
07:00
Voelt als: 0.2°
1022.5 hPa   0.7°
8
0%
10:00
Voelt als: 0.3°
1022.0 hPa   2.4°
8
1%
13:00
Voelt als: 1.2°
1019.8 hPa   2.6°
8
1%
16:00
Voelt als: 0.7°
1018.1 hPa 0.2 mm 2.5°
7
0%
19:00
Voelt als: 0.3°
1015.6 hPa 0.2 mm 1.9°
7
0%
22:00
Voelt als: 0.1°
1012.8 hPa 2.4 mm 0.0°
12
1%
 08:41     15:39    Daglengte: 6:58 Zaterdag 23 Dec
01:00
Voelt als: -1.8°
1014.0 hPa 2.5 mm -0.7°
8
1%
04:00
Voelt als: -3.0°
1018.4 hPa   -5.9°
8
0%
07:00
Voelt als: -3.0°
1021.2 hPa   -6.1°
7
0%
13:00
Voelt als: -0.8°
1024.3 hPa   -6.2°
4
0%
19:00
Voelt als: -1.6°
1023.3 hPa   -3.2°
3
1%
 08:41     15:40    Daglengte: 6:59 Zondag 24 Dec
01:00
Voelt als: -2.5°
1018.3 hPa 0.2 mm -2.1°
7
1%
07:00
Voelt als: -1.7°
1010.0 hPa 6.9 mm 2.2°
9
1%
13:00
Voelt als: 1.2°
1002.7 hPa 2.1 mm 4.6°
8
1%
19:00
Voelt als: 2.8°
994.0 hPa 5.7 mm 6.0°
9
1%
 08:41     15:40    Daglengte: 6:59 Maandag 25 Dec
01:00
Voelt als: -0.2°
991.5 hPa 17.7 mm 1.1°
9
1%
07:00
Voelt als: -0.3°
997.9 hPa 0.1 mm -0.0°
8
1%
13:00
Voelt als: -0.6°
1004.2 hPa   -1.8°
9
1%
19:00
Voelt als: -1.3°
1010.6 hPa   -2.2°
8
0%
 08:41     15:41    Daglengte: 7:00 Dinsdag 26 Dec
01:00
Voelt als: -1.3°
1013.3 hPa 0.2 mm -2.6°
8
0%
07:00
Voelt als: -1.0°
1014.7 hPa 0.8 mm 0.6°
3
0%
13:00
Voelt als: 0.1°
1014.7 hPa 1.2 mm 1.1°
3
0%
19:00
Voelt als: -0.1°
1015.4 hPa 0.6 mm 1.1°
2
0%
 08:41     15:42    Daglengte: 7:01 Woensdag 27 Dec
01:00
Voelt als: -1.1°
1016.5 hPa 0.6 mm 0.5°
3
0%
07:00
Voelt als: 0.1°
1017.9 hPa 0.5 mm 0.4°
2
0%
13:00
Voelt als: 1.5°
1019.7 hPa 0.5 mm 0.9°
2
0%
19:00
Voelt als: 0.6°
1019.3 hPa 0.5 mm 1.1°
2
0%
 08:41     15:43    Daglengte: 7:02 Donderdag 28 Dec
01:00
Voelt als: 0.5°
1019.6 hPa 0.7 mm 0.9°
2
0%
07:00
Voelt als: 0.4°
1020.3 hPa 0.3 mm 0.7°
2
0%
13:00
Voelt als: 1.1°
1020.5 hPa 0.5 mm 0.6°
2
0%
19:00
Voelt als: -0.1°
1020.5 hPa 0.7 mm 0.3°
2
0%
 08:41     15:44    Daglengte: 7:03 Vrijdag 29 Dec
01:00
Voelt als: -0.5°
1020.3 hPa 0.6 mm -0.1°
2
0%
07:00
Voelt als: 0.7°
1020.6 hPa 0.5 mm -0.3°
1
0%
13:00
Voelt als: 2.3°
1022.0 hPa 0.2 mm -0.5°
1
0%
19:00
Voelt als: 1.0°
1022.2 hPa 0.4 mm -0.3°
1
0%
 08:41     15:45    Daglengte: 7:04 Zaterdag 30 Dec
01:00
Voelt als: -0.6°
1021.5 hPa 0.5 mm -0.4°
2
0%
07:00
Voelt als: -0.0°
1020.1 hPa 0.5 mm -0.5°
1
0%
13:00
Voelt als: 1.7°
1020.5 hPa 0.1 mm -0.4°
1
0%
19:00
1020.9 hPa 0.2 mm -0.5°
1
0%
 08:41     15:46    Daglengte: 7:05 Zondag 31 Dec
01:00
Voelt als: 0.8°
1021.4 hPa 0.2 mm -0.9°
1
0%
07:00
Voelt als: 0.1°
1021.0 hPa 0.3 mm -0.9°
1
0%
  CAPE Lifted Index Hail Supercell Tornado SRH 3km CL BTM PRES CL TOP PRES Swiss DWD icon SMHI TS
 08:37     15:36    Daglengte: 6:59 Vandaag
09:00 19 J/kg 3.6 K 0 % 0 % 0 % 0 m²/s² 0 0 7.02
10:00 5 J/kg 4.2 K 0 % 0 % 0 % 0 m²/s² 0 0 7.71
11:00 0 J/kg 4.1 K 0 % 0 % 0 % 0 m²/s² 0 0 7.34
12:00 1 J/kg 3.2 K 0 % 0 % 0 % 0 m²/s² 0 0 6.26
13:00 1 J/kg 3.1 K 0 % 0 % 0 % 0 m²/s² 0 0 6.01
14:00 0 J/kg 3.1 K 0 % 0 % 0 % 0 m²/s² 0 0 5.77
15:00 1 J/kg 3.0 K 0 % 0 % 0 % 0 m²/s² 0 0 5.34
16:00 11 J/kg 2.9 K 0 % 0 % 0 % 0 m²/s² 0 0 4.37
17:00 1 J/kg 2.4 K 0 % 0 % 0 % 0 m²/s² 0 0 3.54
18:00 0 J/kg 1.9 K 0 % 0 % 0 % 0 m²/s² 0 0 2.74
19:00 0 J/kg 2.1 K 0 % 0 % 0 % 0 m²/s² 0 0 2.76
20:00 9 J/kg 3.0 K 0 % 0 % 0 % 0 m²/s² 0 0 3.84
21:00 11 J/kg 2.9 K 0 % 0 % 0 % 0 m²/s² 0 0 3.77
22:00 19 J/kg 4.1 K 0 % 0 % 0 % 0 m²/s² 0 0 5.33
23:00 4 J/kg 4.8 K 0 % 0 % 0 % 0 m²/s² 0 0 6.6
 08:37     15:36    Daglengte: 6:59 Morgen
00:00 1 J/kg 5.0 K 0 % 0 % 0 % 0 m²/s² 0 0 8.06
01:00 0 J/kg 5.0 K 0 % 0 % 0 % 0 m²/s² 0 0 7.94
02:00 0 J/kg 5.0 K 0 % 0 % 0 % 0 m²/s² 0 0 7.94
03:00 4 J/kg 5.2 K 0 % 0 % 0 % 0 m²/s² 0 0 7.57
04:00 7 J/kg 5.3 K 0 % 0 % 0 % 0 m²/s² 0 0 6.29
05:00 1 J/kg 5.3 K 0 % 0 % 0 % 0 m²/s² 0 0 6.32
06:00 0 J/kg 5.4 K 0 % 0 % 0 % 0 m²/s² 0 0 6.51
07:00 0 J/kg 5.5 K 0 % 0 % 0 % 0 m²/s² 0 0 6.85
08:00 0 J/kg 6.5 K 0 % 0 % 0 % 0 m²/s² 0 0 8.21
09:00 0 J/kg 7.6 K 0 % 0 % 0 % 0 m²/s² 0 0 10.12
10:00 0 J/kg 8.8 K 0 % 0 % 0 % 0 m²/s² 0 0 13.15
11:00 0 J/kg 10.8 K 0 % 0 % 0 % 0 m²/s² 0 0 15.78
12:00 0 J/kg 11.4 K 0 % 0 % 0 % 0 m²/s² 0 0 16.14
13:00 0 J/kg 11.9 K 0 % 0 % 0 % 0 m²/s² 0 0 16.52
14:00 0 J/kg 12.5 K 0 % 0 % 0 % 0 m²/s² 0 0 17.27
15:00 0 J/kg 12.8 K 0 % 0 % 0 % 0 m²/s² 0 0 17.48
16:00 0 J/kg 12.3 K 0 % 0 % 0 % 0 m²/s² 0 0 16.74
17:00 0 J/kg 13.2 K 0 % 0 % 0 % 0 m²/s² 0 0 17.79
18:00 0 J/kg 14.5 K 0 % 0 % 0 % 0 m²/s² 0 0 19
19:00 0 J/kg 15.4 K 0 % 0 % 0 % 0 m²/s² 0 0 19.69
20:00 0 J/kg 15.9 K 0 % 0 % 0 % 0 m²/s² 0 0 20.01
21:00 0 J/kg 15.1 K 0 % 0 % 0 % 0 m²/s² 0 0 19.12
22:00 0 J/kg 13.2 K 0 % 0 % 0 % 0 m²/s² 0 0 17.22
23:00 0 J/kg 13.2 K 0 % 0 % 0 % 0 m²/s² 0 0 16.83
 08:38     15:37    Daglengte: 6:59 Maandag 18 Dec
00:00 0 J/kg 12.3 K 0 % 0 % 0 % 0 m²/s² 0 0 13.83
01:00 0 J/kg 11.6 K 0 % 0 % 0 % 0 m²/s² 0 0 12.14
02:00 0 J/kg 11.7 K 0 % 0 % 0 % 0 m²/s² 0 0 12.18
03:00 0 J/kg 11.4 K 0 % 0 % 0 % 0 m²/s² 0 0 11.82
04:00 0 J/kg 11.4 K 0 % 0 % 0 % 0 m²/s² 0 0 11.91
05:00 0 J/kg 11.3 K 0 % 0 % 0 % 0 m²/s² 0 0 11.84
06:00 0 J/kg 10.9 K 0 % 0 % 0 % 0 m²/s² 0 0 11.86
07:00 1 J/kg 11.1 K 0 % 0 % 0 % 0 m²/s² 0 0 12.18
08:00 7 J/kg 10.9 K 0 % 0 % 0 % 0 m²/s² 0 0 12.13
09:00 12 J/kg 11.1 K 0 % 0 % 0 % 0 m²/s² 0 0 12.45
10:00 6 J/kg 10.7 K 0 % 0 % 0 % 0 m²/s² 0 0 12.05
11:00 8 J/kg 10.5 K 0 % 0 % 0 % 0 m²/s² 0 0 12.06
12:00 8 J/kg 10.4 K 0 % 0 % 0 % 0 m²/s² 0 0 12.08
13:00 7 J/kg 10.4 K 0 % 0 % 0 % 0 m²/s² 0 0 12.17
14:00 3 J/kg 10.2 K 0 % 0 % 0 % 0 m²/s² 0 0 12.18
15:00 9 J/kg 9.9 K 0 % 0 % 0 % 0 m²/s² 0 0 12
16:00 4 J/kg 10.4 K 0 % 0 % 0 % 0 m²/s² 0 0 12.56
17:00 5 J/kg 11.5 K 0 % 0 % 0 % 0 m²/s² 0 0 13.99
18:00 6 J/kg 12.2 K 0 % 0 % 0 % 0 m²/s² 0 0 15.32
19:00 5 J/kg 12.8 K 0 % 0 % 0 % 0 m²/s² 0 0 16.64
20:00 4 J/kg 13.1 K 0 % 0 % 0 % 0 m²/s² 0 0 17.96
21:00 0 J/kg 13.5 K 0 % 0 % 0 % 0 m²/s² 0 0 18.63
22:00 0 J/kg 13.2 K 0 % 0 % 0 % 0 m²/s² 0 0 19.29
23:00 0 J/kg 13.2 K 0 % 0 % 0 % 0 m²/s² 0 0 19.92
 08:39     15:37    Daglengte: 6:58 Dinsdag 19 Dec
00:00 0 J/kg 13.7 K 0 % 0 % 0 % 0 m²/s² 0 0 19.85
01:00 1 J/kg 13.9 K 0 % 0 % 0 % 0 m²/s² 0 0 18.13
02:00 0 J/kg 14.2 K 0 % 0 % 0 % 0 m²/s² 0 0 16.69
03:00 0 J/kg 14.4 K 0 % 0 % 0 % 0 m²/s² 0 0 15.18
04:00 0 J/kg 14.6 K 0 % 0 % 0 % 0 m²/s² 0 0 14.96
05:00 0 J/kg 15.1 K 0 % 0 % 0 % 0 m²/s² 0 0 15.4
06:00 0 J/kg 15.4 K 0 % 0 % 0 % 0 m²/s² 0 0 15.7
07:00 0 J/kg 15.5 K 0 % 0 % 0 % 0 m²/s² 0 0 15.8
Temp Baro Wind Neerslag
  EWN Forecast EWN WRFDA DWD ICON FMI HIRLAM MET Norway GFSWXSIM
 08:37     15:36    Daglengte: 6:59 Vandaag
10:00 1.9° 999.0 hPa 4.6 m/s 0.0 mm 1.9° 996.7 hPa 5.4 m/s 0.2 mm 2.0° 999.3 hPa 4.7 m/s 0.0 mm 3.0° 999.8 hPa 4.3 m/s 1.0° 1001.0 hPa 4.0 m/s 0.0 mm
13:00 2.5° 1000.3 hPa 5.3 m/s 0.0 mm 2.5° 997.8 hPa 6.5 m/s 0.2 mm 2.9° 1000.5 hPa 5.2 m/s 0.0 mm 3.3° 1001.2 hPa 4.7 m/s 2.1° 1002.0 hPa 5.0 m/s 0.0 mm
16:00 1.5° 1001.7 hPa 4.4 m/s 0.0 mm 1.5° 999.5 hPa 5.1 m/s 0.2 mm 1.9° 1001.7 hPa 3.9 m/s 0.0 mm 2.6° 1003.0 hPa 4.7 m/s 1.3° 1003.0 hPa 5.0 m/s 0.0 mm
19:00 0.4° 1003.1 hPa 4.2 m/s 0.0 mm 0.0° 1000.0 hPa 4.7 m/s 0.3 mm 0.5° 1003.2 hPa 4.2 m/s 0.0 mm 2.3° 1004.6 hPa 5.0 m/s -0.1° 1005.0 hPa 5.0 m/s 0.3 mm
22:00 0.7° 1004.4 hPa 4.0 m/s 0.0 mm 1.0° 1001.9 hPa 5.9 m/s 4.0 mm 0.8° 1004.2 hPa 3.8 m/s 0.0 mm 2.4° 1006.6 hPa 5.8 m/s -0.3° 1007.0 hPa 4.0 m/s 0.7 mm
 08:37     15:36    Daglengte: 6:59 Morgen
01:00 0.6° 1005.9 hPa 4.9 m/s 0.0 mm -0.6° 1004.6 hPa 5.3 m/s 4.4 mm 1.7° 1005.5 hPa 5.2 m/s 0.0 mm 2.0° 1008.5 hPa 4.8 m/s -0.9° 1009.0 hPa 4.0 m/s 0.0 mm
04:00 0.5° 1008.9 hPa 5.5 m/s 0.8 mm 0.4° 1006.9 hPa 5.8 m/s 4.4 mm 1.6° 1008.7 hPa 4.2 m/s 0.0 mm 0.3° 1010.7 hPa 5.0 m/s -2.1° 1011.0 hPa 4.0 m/s 0.0 mm
07:00 -0.2° 1012.1 hPa 4.7 m/s 0.0 mm -0.2° 1010.1 hPa 5.7 m/s 4.5 mm 0.6° 1012.0 hPa 4.7 m/s 0.0 mm 0.7° 1013.5 hPa 3.8 m/s -2.9° 1014.0 hPa 3.0 m/s 0.0 mm
10:00 0.3° 1015.1 hPa 4.3 m/s 0.0 mm 0.4° 1013.0 hPa 4.3 m/s 4.5 mm 0.5° 1015.1 hPa 3.5 m/s 0.0 mm 0.9° 1016.3 hPa 2.8 m/s -2.9° 1017.0 hPa 2.0 m/s 0.0 mm
13:00 1.0° 1016.3 hPa 2.2 m/s 0.0 mm 1.6° 1014.4 hPa 3.1 m/s 4.5 mm 1.4° 1016.3 hPa 1.7 m/s 0.0 mm 1.6° 1017.9 hPa 1.2 m/s 0.9° 1018.0 hPa 2.0 m/s 0.0 mm
16:00 0.5° 1017.2 hPa 1.6 m/s 0.0 mm 0.4° 1015.2 hPa 2.8 m/s 4.5 mm 1.7° 1017.0 hPa 1.4 m/s 0.0 mm 1.5° 1018.6 hPa 1.8 m/s 0.2° 1018.0 hPa 3.0 m/s 0.0 mm
19:00 0.3° 1017.7 hPa 3.3 m/s 0.0 mm 0.0° 1015.6 hPa 3.5 m/s 3.0 mm 1.3° 1017.6 hPa 3.7 m/s 0.0 mm 1.4° 1019.0 hPa 3.4 m/s -1.7° 1018.0 hPa 3.0 m/s 0.0 mm
22:00 0.9° 1017.7 hPa 4.1 m/s 0.0 mm 1.0° 1014.9 hPa 4.2 m/s 4.5 mm 1.1° 1017.7 hPa 3.8 m/s 0.0 mm 2.0° 1018.5 hPa 4.8 m/s -1.1° 1016.0 hPa 5.0 m/s 0.0 mm
 08:38     15:37    Daglengte: 6:59 Maandag 18 Dec
01:00 1.9° 1016.3 hPa 5.9 m/s 0.0 mm 1.8° 1013.5 hPa 4.7 m/s 4.5 mm 2.3° 1016.3 hPa 6.0 m/s 0.0 mm 3.0° 1016.7 hPa 6.2 m/s 0.7° 1014.0 hPa 6.0 m/s 0.0 mm
04:00 2.0° 1016.8 hPa 6.8 m/s 0.8 mm 2.2° 1012.4 hPa 4.6 m/s 4.5 mm 3.4° 1015.4 hPa 6.1 m/s 2.1° 1012.0 hPa 7.0 m/s 0.5 mm
07:00 2.3° 1017.5 hPa 6.2 m/s 0.0 mm 1.7° 1013.2 hPa 4.3 m/s 4.5 mm 3.3° 1016.1 hPa 6.8 m/s 2.8° 1013.0 hPa 6.0 m/s 0.3 mm
10:00 2.9° 1019.7 hPa 6.8 m/s 0.0 mm 2.7° 1015.9 hPa 5.0 m/s 4.6 mm 3.3° 1019.0 hPa 6.0 m/s 3.1° 1016.0 hPa 4.0 m/s 0.0 mm
13:00 2.7° 1021.2 hPa 4.8 m/s 0.0 mm 2.9° 1018.2 hPa 4.2 m/s 5.2 mm 3.5° 1021.4 hPa 4.9 m/s 4.5° 1019.0 hPa 4.0 m/s 0.0 mm
16:00 2.3° 1022.2 hPa 3.7 m/s 0.0 mm 2.3° 1020.3 hPa 2.0 m/s 5.6 mm 3.2° 1023.6 hPa 4.0 m/s 4.0° 1021.0 hPa 3.0 m/s 0.0 mm
19:00 1.7° 1023.4 hPa 5.1 m/s 0.0 mm 1.9° 1022.9 hPa 2.6 m/s 3.9 mm 3.1° 1026.2 hPa 3.2 m/s 2.7° 1024.0 hPa 2.0 m/s 0.0 mm
22:00 1.6° 1023.9 hPa 4.5 m/s 0.0 mm 1.8° 1025.2 hPa 2.3 m/s 5.9 mm 3.0° 1028.2 hPa 2.4 m/s 2.3° 1027.0 hPa 2.0 m/s 0.0 mm
 08:39     15:37    Daglengte: 6:58 Dinsdag 19 Dec
01:00 1.6° 1023.7 hPa 3.6 m/s 0.8 mm 1.4° 1026.2 hPa 1.8 m/s 5.9 mm 3.0° 1029.2 hPa 2.2 m/s 1.7° 1028.0 hPa 1.0 m/s 0.0 mm
04:00 1.5° 1027.1 hPa 1.9 m/s 6.0 mm 1.5° 1027.1 hPa 1.9 m/s 6.0 mm 2.8° 1030.1 hPa 1.7 m/s 1.4° 1029.0 hPa 1.0 m/s 0.0 mm
07:00 1.7° 1028.3 hPa 2.4 m/s 6.1 mm 1.7° 1028.3 hPa 2.4 m/s 6.1 mm 2.4° 1031.0 hPa 2.0 m/s 1.0° 1030.0 hPa 1.0 m/s 0.0 mm
10:00 1.5° 1031.3 hPa 2.1 m/s 0.0 mm 2.6° 1032.2 hPa 2.4 m/s 0.0 mm 1.1° 1031.0 hPa 2.0 m/s 0.0 mm
13:00 3.4° 1030.5 hPa 3.0 m/s 0.0 mm 3.3° 1032.1 hPa 3.2 m/s 0.0 mm 3.9° 1030.0 hPa 3.0 m/s 0.0 mm
16:00 3.8° 1029.6 hPa 3.7 m/s 0.0 mm 3.5° 1031.3 hPa 3.6 m/s 0.1 mm 4.8° 1029.0 hPa 4.0 m/s 0.0 mm
19:00 4.1° 1028.6 hPa 4.6 m/s 0.0 mm 4.0° 1030.5 hPa 4.5 m/s 0.1 mm 4.5° 1028.0 hPa 5.0 m/s 0.0 mm
22:00 4.0° 1027.8 hPa 4.1 m/s 0.0 mm 4.5° 1030.2 hPa 4.4 m/s 0.0 mm 3.8° 1027.0 hPa 4.0 m/s 0.0 mm
 08:39     15:37    Daglengte: 6:58 Woensdag 20 Dec
01:00 3.9° 1027.5 hPa 3.4 m/s 0.0 mm 4.4° 1029.1 hPa 4.4 m/s 0.0 mm 3.7° 1027.0 hPa 3.0 m/s 0.0 mm
04:00 4.6° 1026.4 hPa 4.2 m/s 0.2 mm 5.4° 1027.6 hPa 4.7 m/s 0.0 mm 4.3° 1026.0 hPa 4.0 m/s 0.2 mm
07:00 5.1° 1026.3 hPa 4.2 m/s 0.9 mm 6.4° 1027.1 hPa 4.8 m/s 0.9 mm 4.7° 1026.0 hPa 4.0 m/s 0.0 mm
10:00 5.7° 1026.7 hPa 4.1 m/s 0.1 mm 6.9° 1026.7 hPa 4.5 m/s 0.1 mm 5.3° 1027.0 hPa 4.0 m/s 0.0 mm
13:00 6.9° 1025.5 hPa 5.3 m/s 0.3 mm 7.9° 1025.4 hPa 6.1 m/s 0.3 mm 6.6° 1026.0 hPa 5.0 m/s 0.0 mm
16:00 5.8° 1025.1 hPa 5.4 m/s 0.3 mm 7.0° 1024.7 hPa 6.5 m/s 0.1 mm 5.4° 1026.0 hPa 5.0 m/s 0.3 mm
19:00 4.1° 1026.4 hPa 5.5 m/s 0.0 mm 6.0° 1026.2 hPa 7.2 m/s 0.1 mm 3.5° 1027.0 hPa 5.0 m/s 0.0 mm
22:00 2.9° 1027.9 hPa 4.3 m/s 0.0 mm 5.3° 1027.8 hPa 5.2 m/s 0.0 mm 2.1° 1028.0 hPa 4.0 m/s 0.0 mm
 08:40     15:38    Daglengte: 6:58 Donderdag 21 Dec
01:00 1.9° 1027.4 hPa 2.4 m/s 0.0 mm 4.1° 1028.4 hPa 3.6 m/s 0.0 mm 1.2° 1027.0 hPa 2.0 m/s 0.0 mm
04:00 1.5° 1025.7 hPa 1.7 m/s 0.0 mm 3.3° 1027.9 hPa 1.6 m/s 0.0 mm 0.9° 1025.0 hPa 2.0 m/s 0.0 mm
07:00 2.1° 1022.1 hPa 2.5 m/s 0.0 mm 3.6° 1025.6 hPa 2.0 m/s 0.0 mm 1.6° 1021.0 hPa 4.0 m/s 0.0 mm
10:00 4.1° 1019.0 hPa 4.8 m/s 3.1 mm 4.1° 1022.0 hPa 4.1 m/s 0.5 mm 4.1° 1018.0 hPa 7.0 m/s 5.6 mm
13:00 5.5° 1016.4 hPa 6.2 m/s 1.3 mm 5.2° 1017.7 hPa 5.6 m/s 2.5 mm 6.5° 1016.0 hPa 8.0 m/s 0.2 mm
16:00 6.8° 1016.3 hPa 8.7 m/s 0.0 mm 6.9° 1017.3 hPa 10.6 m/s 0.1 mm 6.8° 1016.0 hPa 8.0 m/s 0.0 mm
19:00 5.3° 1016.8 hPa 8.2 m/s 0.0 mm 5.7° 1019.2 hPa 11.7 m/s 0.1 mm 5.1° 1016.0 hPa 7.0 m/s 0.0 mm
22:00 4.3° 1016.6 hPa 8.7 m/s 0.0 mm 5.3° 1021.4 hPa 10.7 m/s 0.0 mm 4.0° 1015.0 hPa 8.0 m/s 0.0 mm
 08:40     15:38    Daglengte: 6:58 Vrijdag 22 Dec
01:00 4.2° 1016.3 hPa 8.0 m/s 0.0 mm 5.0° 1023.1 hPa 7.9 m/s 0.0 mm 3.9° 1014.0 hPa 8.0 m/s 0.0 mm
04:00 3.8° 1016.3 hPa 7.2 m/s 0.0 mm 4.9° 1023.1 hPa 7.8 m/s 0.0 mm 3.4° 1014.0 hPa 7.0 m/s 0.0 mm
07:00 4.9° 1022.5 hPa 7.8 m/s 0.0 mm 4.9° 1022.5 hPa 7.8 m/s 0.0 mm
10:00 5.1° 1022.0 hPa 7.9 m/s 0.0 mm 5.1° 1022.0 hPa 7.9 m/s 0.0 mm
13:00 5.7° 1019.8 hPa 7.7 m/s 0.0 mm 5.7° 1019.8 hPa 7.7 m/s 0.1 mm
16:00 5.3° 1018.1 hPa 7.4 m/s 0.2 mm 5.3° 1018.1 hPa 7.4 m/s 0.2 mm
19:00 4.8° 1015.6 hPa 7.0 m/s 0.2 mm 4.8° 1015.6 hPa 7.0 m/s 0.2 mm
22:00 5.6° 1012.8 hPa 11.6 m/s 2.4 mm 5.6° 1012.8 hPa 11.6 m/s 2.4 mm
 08:41     15:39    Daglengte: 6:58 Zaterdag 23 Dec
01:00 3.4° 1014.0 hPa 7.9 m/s 2.5 mm 3.4° 1014.0 hPa 7.9 m/s 2.5 mm
04:00 2.4° 1018.4 hPa 7.7 m/s 0.0 mm 2.4° 1018.4 hPa 7.7 m/s 0.0 mm
07:00 2.3° 1021.2 hPa 7.1 m/s 0.0 mm 2.3° 1021.2 hPa 7.1 m/s 0.0 mm
13:00 2.7° 1024.3 hPa 3.7 m/s 0.0 mm 2.7° 1024.3 hPa 3.7 m/s 0.0 mm
19:00 1.9° 1023.3 hPa 3.4 m/s 0.0 mm 1.9° 1023.3 hPa 3.4 m/s 0.0 mm
 08:41     15:40    Daglengte: 6:59 Zondag 24 Dec
01:00 2.7° 1018.3 hPa 7.3 m/s 0.2 mm 2.7° 1018.3 hPa 7.3 m/s 0.2 mm
07:00 3.7° 1010.0 hPa 8.7 m/s 6.0 mm 3.7° 1010.0 hPa 8.7 m/s 6.0 mm
13:00 5.9° 1002.7 hPa 8.4 m/s 1.2 mm 5.9° 1002.7 hPa 8.4 m/s 1.2 mm
19:00 7.2° 994.0 hPa 9.2 m/s 3.8 mm 7.2° 994.0 hPa 9.2 m/s 3.8 mm
 08:41     15:40    Daglengte: 6:59 Maandag 25 Dec
01:00 5.0° 991.5 hPa 9.0 m/s 10.3 mm 5.0° 991.5 hPa 9.0 m/s 10.3 mm
07:00 4.5° 997.9 hPa 7.7 m/s 0.0 mm 4.5° 997.9 hPa 7.7 m/s 0.1 mm
13:00 4.6° 1004.2 hPa 9.0 m/s 0.0 mm 4.6° 1004.2 hPa 9.0 m/s 0.0 mm
19:00 4.0° 1010.6 hPa 8.4 m/s 0.0 mm 4.0° 1010.6 hPa 8.4 m/s 0.0 mm
 08:41     15:41    Daglengte: 7:00 Dinsdag 26 Dec
01:00 3.7° 1013.3 hPa 7.5 m/s 0.2 mm 3.7° 1013.3 hPa 7.5 m/s 0.2 mm
07:00 2.1° 1014.7 hPa 3.0 m/s 0.8 mm
13:00 3.3° 1014.7 hPa 3.5 m/s 1.2 mm
19:00 2.3° 1015.4 hPa 2.3 m/s 0.6 mm
 08:41     15:42    Daglengte: 7:01 Woensdag 27 Dec
01:00 1.9° 1016.5 hPa 2.8 m/s 0.6 mm
07:00 1.9° 1017.9 hPa 1.7 m/s 0.5 mm
13:00 3.2° 1019.7 hPa 1.8 m/s 0.5 mm
19:00 2.4° 1019.3 hPa 1.8 m/s 0.5 mm
 08:41     15:43    Daglengte: 7:02 Donderdag 28 Dec
01:00 2.4° 1019.6 hPa 1.9 m/s 0.7 mm
07:00 2.0° 1020.3 hPa 1.6 m/s 0.3 mm
13:00 3.1° 1020.5 hPa 2.1 m/s 0.5 mm
19:00 1.8° 1020.5 hPa 1.8 m/s 0.7 mm
 08:41     15:44    Daglengte: 7:03 Vrijdag 29 Dec
01:00 1.7° 1020.3 hPa 2.0 m/s 0.6 mm
07:00 1.5° 1020.6 hPa 1.1 m/s 0.5 mm
13:00 2.4° 1022.0 hPa 0.8 m/s 0.2 mm
19:00 1.5° 1022.2 hPa 0.9 m/s 0.4 mm
 08:41     15:45    Daglengte: 7:04 Zaterdag 30 Dec
01:00 1.3° 1021.5 hPa 1.7 m/s 0.5 mm
07:00 1.3° 1020.1 hPa 1.3 m/s 0.5 mm
13:00 2.4° 1020.5 hPa 1.0 m/s 0.1 mm
19:00 1.5° 1020.9 hPa 0.5 m/s 0.2 mm
 08:41     15:46    Daglengte: 7:05 Zondag 31 Dec
01:00 1.1° 1021.4 hPa 0.8 m/s 0.2 mm
07:00 1.1° 1021.0 hPa 1.1 m/s 0.3 mm
FMI Hirlam - 7.5 km EWN WRFDA - 12 km DWD ICON - 7 km GFS - 25 km Basiskaart






























































Updatetijd (Europe/Amsterdam) Resolutie Lengte Stap
FMI Hirlam 06:00, 12:00, 18:00, 00:00 7.5 km 49h 1h
EWN WRFDA 08:00, 14:00, 20:00, 02:00 12 km 73h 1h
DWD ICON 05:45, 11:45, 17:45, 23:45 7 km 75h 1h
GFS 08:15, 14:15, 20:15, 02:15 25 km 237h 3h
30+ mm
25-30 mm
20-25 mm
15-20 mm
10-15 mm
6-10 mm
4-6 mm
2-4 mm
1-2 mm
0.5-1 mm
0.2-0.5 mm
0.1-0.2 mm
30+ mm
25-30 mm
20-25 mm
15-20 mm
10-15 mm
6-10 mm
4-6 mm
2-4 mm
1-2 mm
0.5-1 mm
0.2-0.5 mm
0.1-0.2 mm
Sneeuwval
Natte sneeuw
Hagel
Vorst
30+ mm
25-30 mm
20-25 mm
15-20 mm
10-15 mm
6-10 mm
4-6 mm
2-4 mm
1-2 mm
0.5-1 mm
0.2-0.5 mm
0.1-0.2 mm
Sneeuwval
Natte sneeuw
Hagel
Vorst
Onweer
50 mm
40 mm
30 mm
26 mm
22 mm
18 mm
14 mm
10 mm
9 mm
8 mm
7 mm
6 mm
5 mm
4.5 mm
4 mm
3.5 mm
3 mm
2.5 mm
2 mm
1.5 mm
1 mm
0.8 mm
0.6 mm
0.4 mm
0.2 mm
0.05 mm
35°
30°
25°
20°
15°
10°
-5°
-10°
-15°
-20°
-25°
-30°
-35°
33> m/s
29 m/s
25 m/s
21 m/s
17 m/s
14 m/s
11 m/s
8 m/s
5 m/s
3 m/s
0 m/s
2600 J/kg
2400 J/kg
2200 J/kg
2000 J/kg
1800 J/kg
1600 J/kg
1400 J/kg
1200 J/kg
1000 J/kg
800 J/kg
600 J/kg
400 J/kg
200 J/kg
70 dBZ
65 dBZ
60 dBZ
55 dBZ
50 dBZ
45 dBZ
40 dBZ
35 dBZ
30 dBZ
25 dBZ
20 dBZ
15 dBZ
10 dBZ
5 dBZ
-1 K
-2 K
-3 K
-4 K
-5 K
-6 K
-7 K
-8 K
-9 K
950 m²/s²
900 m²/s²
850 m²/s²
800 m²/s²
750 m²/s²
700 m²/s²
650 m²/s²
600 m²/s²
550 m²/s²
500 m²/s²
450 m²/s²
400 m²/s²
350 m²/s²
300 m²/s²
250 m²/s²
200 m²/s²
150 m²/s²
100 m²/s²
46 m/s
44 m/s
42 m/s
40 m/s
38 m/s
36 m/s
34 m/s
32 m/s
30 m/s
28 m/s
26 m/s
24 m/s
22 m/s
20 m/s
16 m/s
12 m/s
8 m/s
4 m/s
30 m/s
28 m/s
26 m/s
24 m/s
22 m/s
20 m/s
18 m/s
16 m/s
14 m/s
12 m/s
10 m/s
8 m/s
6 m/s
4 m/s
2 m/s
3.0
2.8
2.6
2.4
2.2
2.0
1.8
1.6
1.4
1.2
1.0
0.8
0.6
0.4
0.2
15
14
13
12
11
10
9
8
7
6
5
4
3
2
1
90%
80%
70%
60%
50%
40%
30%
20%
10%
42
40
38
36
34
32
30
28
26
24
22
20
18
16
14
12
90+ cm
80-90 cm
70-80 cm
60-70 cm
50-60 cm
40-50 cm
30-40 cm
20-30 cm
10-20 cm
1-10 cm
Sneeuwval
Natte sneeuw
Regen
>120 mm
115 mm
110 mm
105 mm
100 mm
95 mm
90 mm
85 mm
80 mm
75 mm
70 mm
65 mm
60 mm
55 mm
50 mm
45 mm
45 mm
40 mm
35 mm
30 mm
25 mm
20 mm
15 mm
10 mm
5 mm
0.1 mm
960 hPa
880 hPa
800 hPa
720 hPa
640 hPa
560 hPa
584 gpdm
568 gpdm
552 gpdm
536 gpdm
520 gpdm
504 gpdm
488 gpdm
Extreem zwaar Noodweer Kans op onweer
15% 15% 5% 50% 15%

Dag




Kaart






35°
30°
25°
20°
15°
10°
-5°
-10°
-15°
-20°
-25°
-30°
-35°
33> m/s
29 m/s
25 m/s
21 m/s
17 m/s
14 m/s
11 m/s
8 m/s
5 m/s
3 m/s
0 m/s
Extreem zwaar Noodweer Kans op onweer
15% 15% 5% 50% 15%
>120 mm
115 mm
110 mm
105 mm
100 mm
95 mm
90 mm
85 mm
80 mm
75 mm
70 mm
65 mm
60 mm
55 mm
50 mm
45 mm
45 mm
40 mm
35 mm
30 mm
25 mm
20 mm
15 mm
10 mm
5 mm
0.1 mm
Onweer risico kaarten - De groene en gele kleur geeft de kans op onweer aan binnen 40 km van een punt. Oranje, rood en violet hebben hetzelfde niveau zoals je het ziet op estofex.org waaronder ook de kans op hagel en supercells.

dBZ - dBZ staat voor decibel ten opzichte van Z.

Cape - Convective available potential energy (CAPE), is de totale hoeveelheid energie die een luchtpakketje nodig heeft om zover mogelijk te stijgen in de atmosfeer.

K Index - K-Index wordt berekend door de Vertical Totals (VT) en het verschil tussen de 850 hPa temperatuur en de 700 hPa dauwpuntsdepressie (Tdd 700) bij elkaar op te tellen.

TT Index - Convectie index wordt gebruikt voor het voorspellen van zware buien of onweer.

WRF - The Weather Research and Forecasting (WRF) is een volgende generatie mesoscale numeriek weersvoorspelling systeem ontworpen om zowel de operationele planning als het atmosferisch onderzoek te dienen. WRF is a cooperatie tussen het National Center for Atmospheric Research (NCAR), National Centers for Environmental Prediction (NCEP), Forecast Systems Laboratory (FSL), Air Force Weather Agency (AFWA), Naval Research Laboratory, University of Oklahoma, en de Federal Aviation Administration (FAA). Deze software draait op onze server.

WRFDA - Een meer geavanceerde versie van WRF

Arome - Het 2.5 km Arome model. Verzorgd door het Noors Meteorologisch Instituut.

MET Norway - De proff-default 4km meteorological data is een beste keus selectie van meteorologische modellen gebruikt door met.no die zijn geïnterpoleerd tot een gemeenschappelijke dataset. Verzorgd door het Noorse Meteorologisch Instituut.

SMHI - Het Hirlam model verzorgd door het Zweeds meteorologisch instituut.

FMI - Het Hirlam model verzorgd door het Fins meteorologisch instituut. Dekking alleen Finland.

GFS - Het Global Forecast Systeem (GFS) is een wereldwijd numerieke weersvoorspelling computermodel, gerund door NOAA.

GEM-GDPS - Het GEM-GDPS is a wereldwijd numeriek weersvoorspelling computermodel verzorgd door het Canadees Meteorologisch Centrum.

Credits/Info: Dank aan Stefan Gofferje van sääkeskus.fi voor enkele formules van GrADS. Info: Wikipedia.

Betrouwbaarheid van de verwachting

NB! 2015-03-29: Rebuilding the accuracy-test!

EWNACC
Day 1 Good forecasts

Dag 1 Tmax

Dag 2 Tmax

Geladen verwachtingen TOP 50

Totaal geladen verwachtingen:
Plaats Latitude Longitude Verwachtingen Plaats Latitude Longitude Verwachtingen
De waarden zijn gebaseerd op numerieke modellen. We proberen ze zo nauwkeurig mogelijk te krijgen, maar het echte weer is afhankelijk van allerlei fenomenen die niet automatisch kunnen worden opgehaald. Daarom, wanneer een waarde hoog is (bijv. Onweer kans), is dit niet een belofte dat het zal gebeuren!

De EWN-Weersverwachting gebruikt meerdere gratis bronnen voor de verwachting.
Daarnaast gebruiken we een eigen versie van WRFDA-EMS op 12 km resolutie die in de statistieken worden opgenomen. De kaarten zijn ook gegenereerd uit de WRFDA EMS-gegevens.

In de weersverwachting zijn inhoud en gegevens gebruikt van:
NCEP (GFS), The Canadian Meteorological Center (GEM-GDPS), Norwegian Meteorological Institute (MET Norway), Swedish Meteorological and Hydrological Institute (SMHI), Finnish meteorological institute (FMI), Temis (UV-forecast), Geonames, WXSIM - near private weatherstations with the WXSIM-software.
Creative Commons -lisenssi © 2017 European Weathernetwork. Script by Henkka, nordicweather.net with help from Oebel (weerstation-assen.nl), Henrik (silkeborg-vejret.dk), Alex (lokaltvader.se), Stefan (Wetterstation-Johanngeorgenstadt) and Daniel (wetterdienst.de). Reusage without permission forbidden.
Except where otherwise noted, content on this page is licensed under a Creative Commons Attribution 3.0 License.